TimeMST,TemperatureF,Dew PointF,Humidity,Sea Level PressureIn,VisibilityMPH,Wind Direction,Wind SpeedMPH,Gust SpeedMPH,PrecipitationIn,Events,Conditions,WindDirDegrees,DateUTC
12:27 AM,30.2,28.4,93,30.32,5.0,Calm,Calm,-,N/A,,Overcast,0,2013-01-25 07:27:00
12:46 AM,30.2,28.4,93,30.31,5.0,Calm,Calm,-,N/A,,Overcast,0,2013-01-25 07:46:00
12:53 AM,30.0,28.9,96,30.23,5.0,SSE,3.5,-,N/A,,Overcast,150,2013-01-25 07:53:00
1:19 AM,30.2,28.4,93,30.30,5.0,SE,3.5,-,N/A,,Overcast,140,2013-01-25 08:19:00
1:53 AM,30.0,28.9,96,30.21,7.0,Calm,Calm,-,N/A,,Overcast,0,2013-01-25 08:53:00
2:18 AM,30.2,28.4,93,30.29,7.0,Calm,Calm,-,N/A,,Overcast,0,2013-01-25 09:18:00
2:53 AM,28.0,27.0,96,30.21,6.0,Calm,Calm,-,N/A,,Overcast,0,2013-01-25 09:53:00
3:33 AM,26.6,24.8,93,30.27,3.0,Calm,Calm,-,N/A,,Overcast,0,2013-01-25 10:33:00
3:53 AM,25.0,24.1,96,30.22,6.0,Calm,Calm,-,N/A,,Overcast,0,2013-01-25 10:53:00
4:53 AM,27.0,26.1,96,30.22,10.0,Calm,Calm,-,N/A,,Overcast,0,2013-01-25 11:53:00
5:21 AM,26.6,24.8,93,30.26,6.0,Calm,Calm,-,N/A,,Overcast,0,2013-01-25 12:21:00
5:36 AM,26.6,26.6,100,30.26,8.0,Calm,Calm,-,N/A,,Overcast,0,2013-01-25 12:36:00
5:46 AM,28.4,26.6,93,30.27,8.0,Calm,Calm,-,N/A,,Overcast,0,2013-01-25 12:46:00
5:53 AM,28.0,26.1,92,30.24,7.0,Calm,Calm,-,N/A,,Overcast,0,2013-01-25 12:53:00
6:53 AM,28.9,27.0,92,30.26,5.0,SSW,3.5,-,N/A,,Overcast,200,2013-01-25 13:53:00
7:53 AM,30.0,27.0,88,30.26,7.0,Calm,Calm,-,N/A,,Overcast,0,2013-01-25 14:53:00
8:53 AM,30.9,28.9,92,30.24,3.0,SE,3.5,-,N/A,,Overcast,140,2013-01-25 15:53:00
9:00 AM,30.2,28.4,93,30.28,4.0,Calm,Calm,-,N/A,,Overcast,0,2013-01-25 16:00:00
9:34 AM,32.0,28.4,87,30.28,9.0,South,3.5,-,N/A,,Overcast,190,2013-01-25 16:34:00
9:53 AM,33.1,30.0,89,30.22,6.0,Calm,Calm,-,N/A,,Overcast,0,2013-01-25 16:53:00
10:53 AM,34.0,30.0,85,30.22,10.0,NW,3.5,-,N/A,,Overcast,320,2013-01-25 17:53:00
11:53 AM,36.0,30.9,82,30.19,7.0,North,6.9,-,N/A,,Overcast,360,2013-01-25 18:53:00
12:53 PM,37.9,30.9,76,30.14,10.0,North,5.8,-,N/A,,Overcast,350,2013-01-25 19:53:00
1:53 PM,37.9,30.0,73,30.12,10.0,North,8.1,-,N/A,,Overcast,10,2013-01-25 20:53:00
2:53 PM,37.0,30.9,79,30.13,7.0,North,5.8,-,N/A,,Overcast,360,2013-01-25 21:53:00
3:53 PM,37.0,30.9,79,30.16,7.0,NNE,5.8,-,0.00,Rain,Light Rain,30,2013-01-25 22:53:00
4:53 PM,36.0,30.9,82,30.14,8.0,Calm,Calm,-,0.00,,Overcast,0,2013-01-25 23:53:00
5:53 PM,35.1,30.9,85,30.14,10.0,Calm,Calm,-,N/A,,Overcast,0,2013-01-26 00:53:00
6:53 PM,34.0,30.9,89,30.14,10.0,Calm,Calm,-,N/A,,Overcast,0,2013-01-26 01:53:00
7:53 PM,34.0,30.9,89,30.13,10.0,Calm,Calm,-,N/A,,Overcast,0,2013-01-26 02:53:00
8:53 PM,34.0,30.9,89,30.13,10.0,NNW,3.5,-,N/A,,Overcast,340,2013-01-26 03:53:00
9:53 PM,33.1,30.9,92,30.13,10.0,SE,3.5,-,N/A,,Overcast,140,2013-01-26 04:53:00
10:00 PM,33.8,30.2,87,30.20,10.0,Calm,Calm,-,N/A,,Overcast,0,2013-01-26 05:00:00
10:53 PM,33.1,30.9,92,30.11,10.0,Calm,Calm,-,N/A,,Overcast,0,2013-01-26 05:53:00
11:23 PM,33.8,30.2,87,30.20,10.0,North,4.6,-,N/A,,Overcast,360,2013-01-26 06:23:00
11:53 PM,33.1,30.9,92,30.09,10.0,Calm,Calm,-,N/A,,Overcast,0,2013-01-26 06:53:00